| time (UTC) | temp F | wind direction | speed MPH | gust MPH | rain 1hr in | rain 24hr in | rain mn in | humidity % | barometer mb |
| 20260903191534 | 60 | 323 | 2.0 | 4.0 | 0.00 | 0.23 | 0.00 | 75 | 1013.0 |
| 20260903183029 | 60 | 275 | 1.0 | 4.0 | 0.00 | 0.23 | 0.00 | 77 | 1013.2 |
| 20260903181538 | 58 | 321 | 2.0 | 5.0 | 0.00 | 0.23 | 0.00 | 80 | 1013.3 |
| 20260903180035 | 57 | 186 | 1.0 | 3.0 | 0.00 | 0.23 | 0.00 | 85 | 1013.5 |
| 20260903174531 | 56 | 276 | 0.0 | 3.0 | 0.00 | 0.23 | 0.00 | 87 | 1013.5 |
| 20260903173106 | 55 | 317 | 1.0 | 4.0 | 0.00 | 0.23 | 0.00 | 89 | 1013.6 |
| 20260903171532 | 55 | 322 | 1.0 | 4.0 | 0.00 | 0.23 | 0.00 | 90 | 1013.6 |
| 20260903170127 | 54 | 331 | 1.0 | 3.0 | 0.00 | 0.23 | 0.00 | 91 | 1013.7 |
| 20260903164529 | 54 | 358 | 1.0 | 3.0 | 0.00 | 0.23 | 0.00 | 91 | 1013.6 |
| 20260903163038 | 53 | 29 | 0.0 | 3.0 | 0.00 | 0.23 | 0.00 | 93 | 1013.7 |
| 20260903160043 | 52 | 22 | 0.0 | 0.0 | 0.00 | 0.23 | 0.00 | 92 | 1013.7 |
| 20260903154530 | 51 | 99 | 2.0 | 5.0 | 0.00 | 0.23 | 0.00 | 91 | 1013.7 |
| 20260903153142 | 51 | 154 | 2.0 | 5.0 | 0.00 | 0.23 | 0.00 | 91 | 1013.9 |
| 20260903151529 | 51 | 135 | 0.0 | 2.0 | 0.00 | 0.23 | 0.00 | 91 | 1013.8 |
| 20260903150031 | 50 | 140 | 3.0 | 5.0 | 0.00 | 0.23 | 0.00 | 91 | 1013.6 |
| 20260903144529 | 50 | 147 | 2.0 | 6.0 | 0.00 | 0.23 | 0.00 | 92 | 1013.6 |
| 20260903143030 | 49 | 158 | 0.0 | 3.0 | 0.00 | 0.23 | 0.00 | 93 | 1013.6 |
| 20260903141605 | 49 | 62 | 1.0 | 9.0 | 0.00 | 0.23 | 0.00 | 92 | 1013.5 |
| 20260903140141 | 49 | 150 | 5.0 | 8.0 | 0.00 | 0.23 | 0.00 | 91 | 1013.3 |
| 20260903134535 | 49 | 145 | 6.0 | 10.0 | 0.00 | 0.23 | 0.00 | 91 | 1013.2 |
| 20260903133033 | 49 | 147 | 4.0 | 7.0 | 0.00 | 0.23 | 0.00 | 92 | 1013.1 |
| 20260903130030 | 48 | 154 | 3.0 | 7.0 | 0.00 | 0.23 | 0.00 | 92 | 1013.0 |
| 20260903124528 | 48 | 122 | 4.0 | 9.0 | 0.00 | 0.23 | 0.00 | 91 | 1012.9 |
| 20260903123032 | 49 | 146 | 7.0 | 12.0 | 0.00 | 0.23 | 0.00 | 91 | 1013.0 |
| 20260903121529 | 49 | 145 | 7.0 | 11.0 | 0.00 | 0.23 | 0.00 | 91 | 1013.0 |
| 20260903120031 | 49 | 148 | 7.0 | 10.0 | 0.00 | 0.23 | 0.00 | 92 | 1013.1 |
| 20260903114637 | 49 | 149 | 7.0 | 11.0 | 0.00 | 0.23 | 0.00 | 93 | 1012.9 |
| 20260903113036 | 49 | 145 | 6.0 | 10.0 | 0.00 | 0.23 | 0.00 | 93 | 1012.9 |
| 20260903111529 | 50 | 146 | 6.0 | 10.0 | 0.00 | 0.23 | 0.00 | 93 | 1012.7 |
| 20260903110104 | 50 | 140 | 5.0 | 9.0 | 0.00 | 0.23 | 0.00 | 94 | 1012.6 |
| 20260903104531 | 50 | 137 | 5.0 | 8.0 | 0.00 | 0.23 | 0.00 | 94 | 1012.4 |
| 20260903103028 | 50 | 146 | 5.0 | 9.0 | 0.00 | 0.23 | 0.00 | 94 | 1012.5 |
| 20260903101530 | 51 | 146 | 4.0 | 8.0 | 0.00 | 0.23 | 0.00 | 94 | 1012.4 |
| 20260903094534 | 51 | 140 | 1.0 | 4.0 | 0.00 | 0.23 | 0.00 | 94 | 1012.4 |
| 20260903093150 | 51 | 137 | 3.0 | 7.0 | 0.00 | 0.23 | 0.00 | 94 | 1012.3 |
| 20260903083032 | 51 | 145 | 2.0 | 6.0 | 0.00 | 0.23 | 0.00 | 94 | 1012.2 |
| 20260903081640 | 51 | 132 | 3.0 | 7.0 | 0.00 | 0.23 | 0.00 | 94 | 1012.2 |
| 20260903074531 | 51 | 96 | 1.0 | 6.0 | 0.00 | 0.23 | 0.00 | 93 | 1011.9 |
| 20260903073035 | 52 | 138 | 5.0 | 9.0 | 0.00 | 0.23 | 0.00 | 94 | 1011.6 |
| 20260903070030 | 52 | 163 | 3.0 | 5.0 | 0.00 | 0.23 | 0.00 | 96 | 1011.6 |
| 20260903064643 | 52 | 121 | 1.0 | 4.0 | 0.00 | 0.23 | 0.23 | 95 | 1011.7 |
| 20260903061531 | 53 | 225 | 1.0 | 2.0 | 0.00 | 0.23 | 0.23 | 96 | 1011.7 |
| 20260903060035 | 53 | 195 | 0.0 | 3.0 | 0.00 | 0.23 | 0.23 | 96 | 1011.6 |
| 20260903054531 | 53 | 156 | 1.0 | 3.0 | 0.00 | 0.23 | 0.23 | 96 | 1011.6 |
| 20260903053032 | 54 | 157 | 0.0 | 0.0 | 0.00 | 0.23 | 0.23 | 96 | 1011.5 |
| 20260903051533 | 54 | 169 | 1.0 | 3.0 | 0.00 | 0.23 | 0.23 | 95 | 1011.5 |
| 20260903044536 | 55 | 225 | 0.0 | 1.0 | 0.00 | 0.23 | 0.23 | 95 | 1011.3 |
| 20260903043029 | 55 | 225 | 0.0 | 1.0 | 0.00 | 0.23 | 0.23 | 95 | 1011.2 |
| 20260903041535 | 56 | 225 | 0.0 | 2.0 | 0.00 | 0.23 | 0.23 | 95 | 1010.9 |
| 20260903040105 | 56 | 225 | 1.0 | 2.0 | 0.01 | 0.23 | 0.23 | 95 | 1010.7 |
| 20260903034531 | 56 | 244 | 1.0 | 2.0 | 0.03 | 0.23 | 0.23 | 96 | 1010.5 |
| 20260903033031 | 56 | 286 | 1.0 | 3.0 | 0.07 | 0.23 | 0.23 | 96 | 1010.3 |
| 20260903031531 | 56 | 292 | 0.0 | 3.0 | 0.10 | 0.23 | 0.22 | 96 | 1010.3 |
| 20260903021530 | 59 | 315 | 1.0 | 4.0 | 0.02 | 0.13 | 0.11 | 96 | 1009.9 |
| 20260903014530 | 59 | 337 | 0.0 | 2.0 | 0.01 | 0.11 | 0.11 | 94 | 1009.5 |
| 20260903013031 | 59 | 337 | 0.0 | 0.0 | 0.01 | 0.11 | 0.11 | 94 | 1009.6 |
| 20260903011533 | 59 | 337 | 0.0 | 2.0 | 0.02 | 0.11 | 0.10 | 93 | 1009.5 |
| 20260903010034 | 60 | 348 | 2.0 | 4.0 | 0.01 | 0.10 | 0.10 | 91 | 1009.7 |
| 20260903004537 | 60 | 156 | 0.0 | 2.0 | 0.01 | 0.10 | 0.10 | 91 | 1009.8 |
| 20260903003107 | 60 | 157 | 0.0 | 0.0 | 0.01 | 0.10 | 0.09 | 90 | 1009.7 |
| 20260903001534 | 60 | 157 | 0.0 | 0.0 | 0.00 | 0.09 | 0.09 | 88 | 1009.6 |
| 20260903000036 | 60 | 157 | 0.0 | 1.0 | 0.00 | 0.09 | 0.09 | 89 | 1009.6 |
| 20260902233111 | 60 | 198 | 0.0 | 2.0 | 0.01 | 0.09 | 0.09 | 90 | 1009.8 |
| 20260902231605 | 60 | 308 | 0.0 | 2.0 | 0.01 | 0.09 | 0.09 | 91 | 1009.9 |
| 20260902230038 | 60 | 315 | 0.0 | 0.0 | 0.02 | 0.09 | 0.09 | 92 | 1009.9 |
| 20260902223035 | 60 | 315 | 0.0 | 0.0 | 0.02 | 0.08 | 0.08 | 90 | 1009.8 |
| 20260902221533 | 60 | 315 | 0.0 | 0.0 | 0.03 | 0.08 | 0.07 | 89 | 1009.7 |
| 20260902220029 | 60 | 321 | 0.0 | 4.0 | 0.03 | 0.07 | 0.07 | 88 | 1009.5 |
| 20260902214539 | 60 | 20 | 0.0 | 2.0 | 0.04 | 0.07 | 0.06 | 91 | 1009.5 |
| 20260902213038 | 60 | 22 | 0.0 | 2.0 | 0.04 | 0.06 | 0.05 | 90 | 1009.6 |
| 20260902210035 | 61 | 360 | 0.0 | 1.0 | 0.02 | 0.04 | 0.03 | 83 | 1010.0 |
| 20260902204533 | 62 | 360 | 0.0 | 1.0 | 0.02 | 0.03 | 0.02 | 82 | 1010.0 |
| 20260902203033 | 62 | 360 | 0.0 | 2.0 | 0.02 | 0.02 | 0.02 | 83 | 1009.9 |
| 20260902200029 | 63 | 134 | 0.0 | 4.0 | 0.02 | 0.02 | 0.01 | 77 | 1009.7 |
| 20260902194531 | 65 | 161 | 3.0 | 6.0 | 0.01 | 0.01 | 0.00 | 67 | 1009.8 |